Location: ??????
(56.0120°N, 39.1740°E)
Time: 08:06:17
(UTC+00:00)

COSMOS 2428 - Pass Details

Date: 14 April 2026
Orbit: 843 x 855 km, 70.9° (Epoch: 9 May)

Event Time Altitude Azimuth Distance (km) Brightness Sun altitude
Rises 17:12:07 0° 184° (S) 3,414 5.6 -6.5°
Reaches altitude 10° 17:14:42 10° 176° (S) 2,483 4.8 -6.8°
Maximum altitude 17:19:55 38° 110° (ESE) 1,280 3.2 -7.5°
Drops below altitude 10° 17:25:10 10° 44° (NE) 2,499 5.0 -8.1°
Sets 17:27:46 0° 37° (NE) 3,439 5.8 -8.4°
